Location: Pinon Hills
(34.4429°N, 117.6403°W)
Time: 01:11:48
(UTC-07:00)

Uosat F - Visible Passes

Search period start: 24 March 2017 00:00
Search period end: 03 April 2017 00:00
Orbit: 751 x 761 km, 98.8° (Epoch: 22 March)

Date Brightness Start Highest point End Pass type
(mag) Time Alt. Az. Time Alt. Az. Time Alt. Az.
24 Mar 14.1 19:59:52 10° SW 20:02:49 16° W 20:05:48 10° WNW visible
27 Mar 13.7 19:38:55 10° SSW 19:43:03 25° W 19:47:11 10° NW visible
28 Mar 14.6 06:13:05 10° ENE 06:14:54 12° E 06:16:43 10° ESE visible
29 Mar 14.1 20:00:01 10° SW 20:03:01 16° W 20:06:02 10° WNW visible
01 Apr 13.6 19:39:06 10° SSW 19:43:14 25° W 19:47:24 10° NW visible
02 Apr 14.6 06:13:22 10° ENE 06:15:05 12° E 06:16:48 10° ESE visible
